DB0WGS-1 Weather Reports


time (UTC)temp
F
wind
direction
speed
knots
gust
knots
rain 1hr
in
rain 24hr
in
rain mn
in
humidity
%
barometer
mb
20260906010540 32 2.6 3.5 0.00 0.04 0.00 99 1025.1
20260906005333 32 2.6 3.5 0.00 0.04 0.00 99 1025.1
20260906004127 32 2.6 3.5 0.00 0.04 0.00 99 1025.1
20260906002921 32 2.6 3.5 0.00 0.04 0.00 99 1025.0
20260906001716 32 2.6 5.2 0.00 0.04 0.00 99 1024.9
20260906000509 32 2.6 4.3 0.00 0.04 0.00 99 1024.9
20260905235306 32 2.6 4.3 0.00 0.04 0.00 99 1024.8
20260905234059 32 2.6 3.5 0.00 0.04 0.00 99 1024.8
20260905232852 32 2.6 3.5 0.00 0.04 0.00 99 1024.8
20260905231644 32 2.6 3.5 0.00 0.04 0.00 99 1024.7
20260905230438 32 2.6 3.5 0.00 0.04 0.00 99 1024.7
20260905225233 32 2.6 4.3 0.00 0.04 0.00 99 1024.6
20260905224027 32 2.6 4.3 0.00 0.04 0.00 99 1024.6
20260905222820 32 3.5 5.2 0.00 0.04 0.00 99 1024.5
20260905221615 32 3.5 5.2 0.00 0.04 0.00 99 1024.4
20260905220408 32 4.3 7.0 0.00 0.04 0.00 99 1024.3
20260905215203 32 3.5 7.0 0.00 0.04 0.00 99 1024.1
20260905213957 32 4.3 7.8 0.00 0.04 0.00 99 1024.0
20260905212750 32 4.3 7.0 0.00 0.04 0.00 99 1023.8
20260905211545 32 3.5 5.2 0.00 0.04 0.00 99 1023.8
20260905210338 32 3.5 7.0 0.00 0.04 0.00 99 1023.6
20260905205131 32 3.5 7.0 0.00 0.04 0.00 99 1023.5
20260905203925 32 3.5 7.0 0.00 0.04 0.00 99 1023.6
20260905202720 32 4.3 7.8 0.00 0.04 0.00 99 1023.5
20260905201514 32 4.3 7.0 0.00 0.04 0.00 99 1023.4
20260905200307 32 4.3 7.8 0.00 0.04 0.00 99 1023.3
20260905195102 32 5.2 9.6 0.00 0.04 0.00 99 1023.1
20260905193855 32 6.1 11.3 0.00 0.04 0.00 99 1023.0
20260905192649 32 6.1 11.3 0.00 0.04 0.00 99 1022.9
20260905191442 32 7.0 13.9 0.00 0.04 0.00 99 1022.8
20260905190237 32 7.0 10.4 0.00 0.04 0.00 99 1022.6
20260905185031 32 8.7 13.9 0.00 0.04 0.00 99 1022.3
20260905183825 32 9.6 15.6 0.00 0.04 0.00 99 1022.2
20260905182618 32 8.7 15.6 0.00 0.04 0.00 99 1022.0
20260905181413 32 7.8 13.9 0.00 0.04 0.00 99 1022.0
20260905180207 32 8.7 14.8 0.00 0.04 0.00 99 1021.8
20260905175000 32 8.7 14.8 0.00 0.04 0.00 99 1021.7
20260905173754 32 8.7 14.8 0.00 0.04 0.00 99 1021.6
20260905172548 32 7.8 11.3 0.00 0.04 0.00 99 1021.5
20260905171342 32 7.8 13.0 0.00 0.04 0.00 99 1021.4
20260905170136 32 7.8 13.9 0.00 0.04 0.00 99 1021.4
20260905164929 32 7.8 14.8 0.00 0.04 0.00 99 1021.4
20260905163725 32 6.1 10.4 0.00 0.04 0.00 99 1021.5
20260905162518 32 7.0 13.0 0.00 0.04 0.00 99 1021.3
20260905161313 32 7.0 11.3 0.00 0.04 0.00 99 1021.3
20260905160105 32 7.0 13.0 0.00 0.04 0.00 99 1021.2
20260905154859 32 7.0 14.8 0.00 0.04 0.00 99 1021.1
20260905153654 32 7.0 11.3 0.00 0.04 0.00 99 1021.2
20260905152449 32 7.0 13.0 0.00 0.04 0.00 99 1021.2
20260905151241 32 8.7 13.9 0.00 0.04 0.00 99 1021.2
20260905150035 32 8.7 15.6 0.00 0.04 0.00 99 1021.2
20260905144830 32 8.7 14.8 0.00 0.04 0.00 99 1021.2
20260905143626 32 7.8 13.9 0.00 0.04 0.00 99 1021.2
20260905142416 32 7.8 13.9 0.00 0.04 0.00 99 1021.3
20260905141211 32 6.1 10.4 0.00 0.04 0.00 99 1021.4
20260905140005 32 6.1 10.4 0.00 0.04 0.00 99 1021.6
20260905134800 32 5.2 8.7 0.00 0.04 0.00 99 1021.7
20260905133553 32 4.3 9.6 0.00 0.04 0.00 99 1021.8
20260905132346 32 6.1 9.6 0.00 0.04 0.00 99 1021.7
20260905131140 32 6.1 11.3 0.00 0.04 0.00 99 1021.7
20260905125936 32 7.0 11.3 0.00 0.04 0.00 99 1021.7
20260905124728 32 6.1 9.6 0.00 0.04 0.00 99 1021.7
20260905123522 32 5.2 9.6 0.00 0.04 0.00 99 1021.9
20260905122316 32 5.2 9.6 0.00 0.04 0.00 99 1022.0
20260905121110 32 6.1 10.4 0.00 0.04 0.00 99 1022.1
20260905115905 32 6.1 10.4 0.00 0.04 0.00 99 1022.2
20260905114658 32 6.1 11.3 0.00 0.04 0.00 99 1022.1
20260905113452 32 6.1 11.3 0.00 0.04 0.00 99 1022.2
20260905112247 32 6.1 10.4 0.00 0.04 0.00 99 1022.1
20260905111041 32 7.0 11.3 0.00 0.04 0.00 99 1021.9
20260905105833 32 5.2 10.4 0.00 0.04 0.00 99 1021.9
20260905104628 32 6.1 9.6 0.00 0.04 0.00 99 1021.8
20260905103421 32 5.2 8.7 0.00 0.04 0.00 99 1021.9
20260905102215 32 6.1 9.6 0.00 0.04 0.00 99 1021.8
20260905101009 32 5.2 9.6 0.00 0.04 0.00 99 1021.9
20260905095804 32 6.1 10.4 0.00 0.04 0.00 99 1021.8
20260905094557 32 6.1 9.6 0.00 0.04 0.00 99 1022.0
20260905093352 32 5.2 9.6 0.00 0.04 0.00 99 1022.0
20260905092145 32 5.2 8.7 0.00 0.04 0.00 99 1022.0
20260905090938 32 5.2 10.4 0.00 0.04 0.00 99 1022.1
20260905085733 32 5.2 8.7 0.00 0.04 0.00 99 1021.9
20260905084526 32 5.2 8.7 0.01 0.04 0.00 99 1021.8
20260905083321 32 6.1 8.7 0.00 0.04 0.00 99 1021.7
20260905082114 32 6.1 9.6 0.00 0.04 0.00 99 1021.6
20260905080909 32 7.0 10.4 0.00 0.04 0.00 99 1021.7
20260905075702 32 6.1 9.6 0.00 0.04 0.00 99 1021.5
20260905074456 32 5.2 7.8 0.01 0.04 0.00 99 1021.2
20260905073250 32 5.2 8.7 0.01 0.04 0.04 99 1021.2
20260905072044 32 4.3 7.8 0.02 0.04 0.04 99 1020.9
20260905070838 32 4.3 7.8 0.02 0.04 0.04 99 1020.7
20260905065632 32 5.2 7.8 0.02 0.03 0.03 99 1020.2
20260905064426 32 5.2 7.8 0.02 0.03 0.03 99 1020.2
20260905063220 32 5.2 7.8 0.03 0.03 0.03 99 1020.2
20260905062013 32 4.3 7.0 0.02 0.02 0.02 99 1019.7
20260905060807 32 3.5 7.0 0.02 0.02 0.02 99 1019.7
20260905055603 32 4.3 7.8 0.01 0.01 0.01 99 1019.6
20260905054356 32 3.5 7.0 0.01 0.01 0.01 99 1019.5
20260905053148 32 4.3 8.7 0.00 0.00 0.00 99 1019.5
20260905051943 32 7.8 16.5 0.00 0.00 0.00 99 1019.5
20260905050737 32 9.6 19.1 0.00 0.00 0.00 99 1019.5
20260905045531 32 11.3 19.1 0.00 0.00 0.00 99 1019.5
20260905044324 32 9.6 15.6 0.00 0.00 0.00 99 1018.7
20260905043118 32 7.8 14.8 0.00 0.00 0.00 99 1018.3
20260905041913 32 7.8 14.8 0.00 0.00 0.00 99 1018.0
20260905040707 32 8.7 13.9 0.00 0.00 0.00 99 1017.7
20260905035500 32 8.7 14.8 0.00 0.00 0.00 99 1017.3
20260905034254 32 9.6 15.6 0.00 0.00 0.00 99 1017.0
20260905033048 32 8.7 15.6 0.00 0.00 0.00 99 1016.7
20260905031843 32 4.3 7.8 0.00 0.00 0.00 99 1016.5
20260905030635 32 4.3 7.0 0.00 0.00 0.00 99 1016.4
20260905025429 32 4.3 7.8 0.00 0.00 0.00 99 1016.4
20260905024224 32 3.5 5.2 0.00 0.00 0.00 99 1016.1
20260905023018 32 3.5 5.2 0.00 0.00 0.00 99 1016.0
20260905021812 32 3.5 7.0 0.00 0.00 0.00 99 1015.9
20260905020606 32 5.2 8.7 0.00 0.00 0.00 99 1015.9
20260905015400 32 4.3 7.8 0.00 0.00 0.00 99 1015.9
20260905014154 32 4.3 8.7 0.00 0.00 0.00 99 1015.8
20260905012947 32 5.2 8.7 0.00 0.00 0.00 99 1015.8
20260905011741 32 4.3 9.6 0.00 0.00 0.00 99 1015.7